(459537) = 2013 GF3

Discovered at Kitt Peak on 2006-04-25 by Spacewatch.

Orbit

Orbit type: Main Belt

Note: WebGL enabled browser required.

epoch2024-03-31.0
epoch JD2460400.5
perihelion date2020-08-25.24105
perihelion JD2459086.74105
argument of perihelion (°)348.44926
ascending node (°)198.98761
inclination (°)11.76317
eccentricity0.1156504
perihelion distance (AU)2.1007863
Tisserand w.r.t. Jupiter3.5
ΔV w.r.t. Earth (km/sec)9.7
semimajor axis (AU)2.3755155
mean anomaly (°)353.65738
mean daily motion (°/day)0.26919500
aphelion distance (AU)2.650
period (years)3.66
P-vector [x]-0.99021986
P-vector [y]-0.10616350
P-vector [z]-0.09052037
Q-vector [x]0.12273894
Q-vector [y]-0.97136453
Q-vector [z]-0.20343575
absolute magnitude17.96
phase slope0.15
uncertainty0
referenceMPEC 2024-E179
observations used113
oppositions10
arc length (days)6531
first opposition used2006
last opposition used2024
residual rms (arc-secs)0.78
perturbers coarse indicatorM-v
perturbers precise indicator003Ek
first observation date used2006-04-25.0
last observation date used2024-03-12.0
computer nameMPCLINUX
JD of orbit computation2457389.354753
perihelion JD uncertainty (days)8.3111E-05
argument of perihelion uncertainty (°)2.8075E-05
ascending node uncertainty (°)1.9403E-05
inclination uncertainty (°)5.1435E-06
eccentricity uncertainty 6.3369E-08
perihelion distance uncertainty (AU)1.6599E-07
Minimum Orbit Intersection Distances (in AU)
for orbit epoch: 2460400.5, reference: E2024-G95
Mercury1.68208
Venus1.38386
Earth1.10239
Mars0.47357
Jupiter2.30767
Saturn6.58814
Uranus16.3394
Neptune27.1911

Observations

115 total observations over interval: 2006 04 25.31759 – 2024 03 12.376600
These data are available for download (format description).

